OBJECT BB, 61784

Orbit data source: Space-Track

You're viewing an Uncataloged Satellite

Recently launched and/or uncataloged satellites may have evolving metadata. Metadata may include but not limited to: Owner, Maufacturer, Bus, Motor, and Mission.

OBJECT BB, 61784 is a satellite in SSO that was launched on Mon, 04 Nov 2024 UTC via a SOYUZ-2-1B launch vehicle from the Vostochny Cosmodrome (VOSTO). Unknown objects in Earth's orbit typically refer to objects detected orbiting the Earth but have not yet been identified or cataloged. These objects could be anything from previously untracked satellites, spent rocket stages, debris from satellite collisions, or even natural meteoroids temporarily captured by Earth's gravity.

Loading next visibility...
Identifier
61784, 2024-199BB
Orbit
SSO
Country
Flag of TBDTBD
Related business
Manufacturer
SNIU
Mission
Operational Amateur Technology
Bus & Motor
CUBESAT 3U, Unknown motor
Mass
3 kg wet, 3 kg dry
Launch date (UTC)
2024-11-04 (2 years ago)
Launch vehicle
SOYUZ-2-1B
Launch site
Vostochny Cosmodrome (VOSTO)
Object type
Unknown
Shape & HBR
Box, 0.1 m
Radar Cross Section
0.035 m², Small (<0.1 m²)

Expand to show TLE details & history
Last TLE update: 6 hours ago

TLE from 6 hours ago
0 OBJECT BB
1 61784U 24199BB  26127.92528091  .00035558  00000-0  54278-3 0  9990
2 61784  97.3006   2.9610 0010969  77.0921 283.1557 15.54293320131305
Epoch: 2026-05-07T22:12Z
TLE epoch observation values (Epoch: 2026-05-07T22:12:24.270Z)
Latitude
-0.00008°
Longitude
164.09546°
Altitude
405.662 km
Speed
7.668 km/s
True Right ascension
00h 11m 50s
True Declination
0° 00' 00"
Sunlit
Object was in daylight at epoch
Visualization orbit readout
Latitude
Unknown
Longitude
Unknown
Altitude
Unknown
Speed
Unknown
Apparent Right ascension
Unknown
Apparent Declination
Unknown
Sunlit
N/A
Visualization observer readout
Local Sidereal Time
12:39:17
Azimuth
Unknown
Elevation
Unknown
Doppler factor
Unknown
Orbital elements
Apogee altitude
408.56 km
Perigee altitude
393.687 km
Semi-major axis
6,779.26 km
Eccentricity
0.0011
Inclination
97.3006°
RAAN
2.961°
Arg. of periapsis
77.0921°
True anomaly
283.03327°
Mean anomaly
283.1557°
Eccentric anomaly
283.09449°
Mean motion
3.88839 °/min
Orbital period
92.58 mins
BSTAR
0.00054278
Loading maneuver chart data...
Computing Atmospheric mass density...
Loading historical data...
Loading historical data...
Loading historical data...
Loading historical data...
Loading historical data...
Loading historical data...
Loading historical data...

Documentation

Showing up to 5 results
|